User: anonymous   Login
Location: Newark
(49.3808°N, 3.1844°E)
Time: 13:38:46
(UTC+00:00)
Language:

Tiros 1 - Orbit

View from above orbital plane
View from above orbital plane
View from above satellite
View from above satellite

Ground track
Ground track

The orbit data is extracted from the following two-line orbital elements,

1    29U 60002B   19324.77931394 -.00000123 +00000-0 +12761-4 0  9999
2    29 048.3790 218.1150 0023769 054.5159 305.7966 14.74329252187605
Epoch (UTC): 20 November 2019 18:42:12
Eccentricity: 0.0023769
inclination: 48.3790°
perigee height: 630 km
apogee height: 664 km
right ascension of ascending node: 218.1150°
argument of perigee: 54.5159°
revolutions per day: 14.74329252
mean anomaly at epoch: 305.7966°
orbit number at epoch: 18760

The dashed part of the orbit path shows where the satellite is in the earth's shadow,  

DLR